SCP
0 0 1 1 1 1 1 1 1 1 1 1 1 1 1 1 1 1 2 2 2 1 1 1 0 0 1 1 2 2 3 3 3 2 3 3 3 2 2 1 0 0 0
0 0 1 1 1 0 0 0 1 1 1 1 1 1 1 1 1 1 1 1 2 2 1 1 1 0 1 1 1 2 3 3 2 2 2 3 3 2 2 1 1 0 0
0 0 0 0 0 0 0 0 0 0 0 1 1 1 1 1 1 1 1 1 1 1 1 1 1 1 1 1 1 1 2 2 2 2 2 2 2 2 2 1 1 0 0
0 0 0 0 0 0 0 0 0 0 0 0 0 1 1 1 1 1 1 1 1 1 1 1 1 1 1 1 1 1 1 2 2 2 2 2 2 2 2 1 1 0 0
0 0 0 0 0 0 0 0 0 0 0 0 1 1 0 0 1 1 1 1 1 1 1 1 1 1 1 0 0 1 1 1 1 1 2 2 2 2 2 1 1 1 1
0 0 0 0 0 0 0 0 0 0 0 1 1 1 0 0 0 0 1 1 1 1 1 1 1 1 1 0 0 0 0 1 1 1 1 1 2 2 2 1 1 1 1
0 0 0 0 0 0 0 0 0 0 0 1 1 1 1 0 0 0 0 1 1 1 1 1 1 1 1 1 0 0 0 0 1 1 1 1 2 2 2 2 1 1 1
0 0 0 0 0 0 0 0 0 0 1 1 1 1 1 1 0 0 0 1 1 1 1 1 1 1 1 1 1 0 0 0 0 1 1 1 1 1 1 1 1 1 1
0 0 0 0 0 0 0 0 0 0 0 0 1 1 1 1 0 0 0 0 1 1 1 1 1 1 1 0 0 0 0 0 0 1 1 1 1 1 1 1 1 1 1
0 0 0 0 0 0 0 0 0 0 0 0 1 1 1 1 0 0 0 0 1 1 1 1 1 1 0 0 0 0 0 0 0 1 1 0 1 0 1 1 1 1 1
0 0 0 0 0 0 0 0 0 0 0 0 1 1 1 1 0 0 0 0 0 1 1 1 1 0 0 0 0 0 0 0 0 1 1 0 0 0 0 1 1 0 0
0 0 0 0 0 0 0 0 0 0 1 1 1 0 0 0 0 0 0 0 0 1 1 1 0 0 0 0 0 0 0 0 0 0 1 1 1 1 1 1 1 1 1
0 0 0 0 0 1 1 0 0 0 1 1 0 0 0 0 0 0 0 0 0 0 1 0 0 0 0 0 0 0 0 0 0 0 0 0 1 1 1 1 1 1 1
0 0 0 0 1 1 0 0 0 0 0 0 0 0 0 0 0 0 0 0 0 0 0 0 0 0 0 0 0 0 0 0 0 1 0 0 1 1 1 1 1 1 1
0 0 0 0 1 0 0 0 0 0 0 0 0 0 0 0 0 0 0 0 0 0 0 0 0 0 0 0 0 0 0 0 0 0 1 1 1 1 1 1 1 1 1
0 0 0 0 0 0 0 0 0 0 0 0 0 0 0 0 0 0 0 0 0 0 0 0 0 0 0 0 0 0 0 0 0 0 0 1 1 1 1 1 1 1 1
0 0 0 0 0 0 0 0 0 0 0 0 0 0 0 0 0 0 0 0 0 0 0 0 0 0 0 0 0 0 0 0 0 0 0 1 1 1 1 0 1 1 1
0 0 0 1 1 0 0 0 0 0 0 0 0 0 0 0 0 0 0 0 0 0 0 0 0 0 0 0 0 0 0 0 0 0 1 1 1 1 1 0 0 0 0
0 0 0 1 1 0 0 0 0 0 0 0 0 0 0 0 0 0 0 0 0 0 0 0 0 0 0 0 0 0 0 0 1 1 1 1 1 1 1 0 0 0 0
0 0 0 0 1 0 0 0 0 0 0 0 0 0 0 0 0 0 0 0 0 0 0 0 0 0 0 0 0 0 0 0 1 1 1 1 1 1 0 0 1 0 0
0 0 0 0 0 0 0 0 0 0 0 0 0 0 0 0 0 0 0 0 0 0 0 0 0 0 0 0 0 0 0 0 1 1 1 1 1 1 0 1 1 0 0
0 0 0 0 0 0 0 0 0 0 0 0 0 0 0 0 0 0 0 0 0 0 0 0 0 0 0 0 0 0 0 0 0 0 1 1 1 1 1 1 1 0 0
0 0 0 0 0 0 0 0 0 0 0 0 0 0 0 0 0 0 0 0 0 0 0 0 0 0 0 0 0 0 0 0 0 0 0 0 1 1 1 1 0 0 0
0 0 0 0 0 0 0 0 0 0 0 0 0 0 0 0 0 0 0 0 0 0 0 0 0 0 0 0 0 0 0 0 0 0 0 0 0 0 1 0 0 0 0
0 0 0 0 0 0 0 0 0 0 0 0 0 0 0 0 0 0 0 0 0 0 0 0 0 0 0 0 0 0 0 0 0 0 0 0 0 0 0 0 0 0 0
0 0 0 0 0 0 0 0 0 0 0 0 0 0 0 0 0 0 0 0 0 0 0 0 0 0 0 0 0 0 0 0 0 0 0 0 0 0 0 0 0 0 0
Wind_Speed
6 6 6 6 7 7 7 8 8 8 8 8 8 8 8 8 7 7 7 7 7 6 5 5 5 4 4 3 3 3 3 2 2 1 2 6 7 8 7 7 7 6 6
7 6 6 6 7 8 9 9 8 8 8 9 9 9 10 10 8 8 9 9 8 8 8 7 7 5 5 4 3 4 3 3 2 2 2 4 7 8 8 7 6 7 7
9 8 8 8 8 9 9 9 9 9 9 9 9 10 10 10 9 9 9 9 9 9 8 8 8 7 6 5 5 4 4 4 3 3 3 3 5 6 8 7 8 6 7
10 10 9 9 9 9 10 9 9 9 9 9 10 10 10 10 10 10 10 10 9 9 9 9 8 8 8 7 5 5 5 5 5 4 4 4 5 6 7 7 6 5 6
10 11 10 10 9 10 10 10 10 10 12 10 10 10 10 10 11 11 10 12 10 9 9 9 9 10 11 9 6 5 5 5 5 5 5 5 5 7 7 6 7 6 5
10 11 11 11 11 11 10 10 10 10 10 10 10 11 11 12 13 12 8 8 8 9 9 9 10 9 11 12 11 9 7 6 6 5 6 7 8 7 7 8 8 8 5
10 11 11 12 12 11 13 12 11 10 10 10 11 11 11 11 14 14 13 8 9 8 9 8 10 11 12 10 11 11 9 9 8 5 6 7 7 9 9 10 9 8 5
11 12 12 12 13 12 12 12 11 9 9 10 11 11 11 12 14 15 14 11 10 9 9 8 9 8 8 9 10 10 9 8 9 7 6 5 4 6 8 9 9 7 6
12 12 13 13 13 13 13 12 11 9 10 10 11 11 11 11 13 14 13 9 9 10 10 10 9 9 9 10 8 8 8 7 10 11 9 6 6 7 7 7 9 9 8
12 13 13 13 13 14 13 11 10 9 10 10 10 10 10 10 11 13 13 9 9 8 7 8 11 9 10 11 8 7 7 6 6 7 7 7 7 8 11 10 10 10 9
13 13 13 13 12 13 10 9 9 9 9 9 10 9 9 9 9 11 14 9 7 7 6 6 6 9 11 12 9 6 5 4 5 6 6 6 6 6 8 8 8 8 9
13 14 14 13 13 11 10 10 9 9 9 8 8 7 6 5 6 8 12 12 7 4 4 4 4 9 11 12 8 6 6 4 3 5 5 6 6 7 8 8 8 7 5
13 14 14 14 12 10 9 9 8 7 6 6 6 6 5 4 3 5 9 10 8 3 1 1 3 9 9 8 9 8 6 4 4 4 5 6 5 6 7 6 6 7 6
14 13 13 13 12 9 7 6 6 5 6 6 5 5 5 4 2 1 3 5 6 6 3 3 5 7 6 6 7 6 5 4 4 4 5 5 5 6 6 7 7 7 6
14 13 12 11 10 9 7 5 5 4 3 4 5 5 5 4 4 4 1 2 4 5 5 4 3 4 4 5 6 7 7 6 5 4 4 5 5 6 6 7 7 7 6
12 12 10 10 8 8 7 6 4 4 4 4 4 4 4 3 4 3 1 0 1 4 5 4 5 5 7 7 7 7 7 7 6 6 5 5 6 7 7 7 8 8 8
12 11 10 9 8 7 7 6 6 3 5 6 5 4 3 4 3 1 1 2 2 4 4 4 5 6 6 6 6 7 7 7 6 6 6 6 7 7 8 9 8 8 8
12 11 10 8 7 7 7 6 5 5 3 2 2 3 2 1 1 0 1 1 3 4 4 4 5 5 5 5 5 5 5 5 5 6 6 7 7 8 9 9 9 9 9
11 9 8 9 7 6 6 6 5 5 4 2 0 2 2 2 2 1 2 4 4 5 5 5 4 4 4 4 5 4 4 4 5 6 6 7 8 9 9 9 9 12 10
9 11 10 8 7 6 5 5 5 5 4 2 1 0 3 3 3 3 4 5 4 3 3 3 4 4 4 4 4 3 4 4 5 5 6 7 8 8 10 11 11 11 9
10 10 11 8 6 5 6 6 5 4 4 3 2 1 2 3 3 3 4 4 4 3 3 3 3 3 4 4 4 4 4 4 5 5 6 7 8 8 8 9 10 10 9
9 8 7 7 6 5 5 5 5 4 4 3 2 0 3 4 2 2 2 3 3 3 3 3 3 3 3 3 3 3 4 4 5 6 7 7 7 8 9 9 10 9 9
9 9 7 5 5 5 5 4 4 4 4 4 3 2 1 2 2 1 1 0 1 1 1 1 2 1 1 1 1 2 3 4 6 7 7 8 8 8 8 9 12 11 10
9 8 8 6 5 5 6 5 4 4 4 4 3 3 2 2 2 1 1 1 1 1 0 1 1 1 2 1 1 1 2 3 6 7 9 9 9 8 8 9 9 11 10
7 7 7 6 5 5 5 5 5 4 4 4 3 3 3 2 2 2 1 1 1 1 1 1 1 1 2 2 3 5 7 7 6 6 7 7 9 9 9 10 9 10 9
7 7 7 6 5 5 5 5 5 5 4 3 3 2 2 2 2 2 1 1 1 1 2 2 3 3 3 4 8 9 8 8 8 7 5 6 8 8 9 8 11 10 10
Wind_Direction
313 308 306 301 299 298 293 289 289 291 292 290 286 282 279 273 263 248 237 230 225 227 227 223 227 237 250 265 268 273 277 275 259 250 141 140 131 128 125 125 130 113 98
316 311 305 301 299 297 297 295 294 292 289 287 283 280 276 273 265 255 246 240 225 222 220 219 220 222 225 239 248 250 256 253 243 229 159 145 142 135 136 134 127 114 106
314 309 308 305 303 298 296 293 291 288 285 282 279 276 274 272 270 266 258 249 236 228 219 216 213 209 216 217 226 233 239 241 227 213 191 157 145 141 134 125 115 114 112
316 313 307 303 301 299 296 294 291 289 286 282 278 274 271 268 266 263 261 254 245 236 229 221 213 207 208 205 214 219 221 227 218 211 196 173 159 151 141 139 134 131 129
313 307 306 304 300 296 293 291 288 286 285 283 283 279 274 269 260 252 248 253 247 239 233 228 221 211 208 202 205 200 204 212 212 204 199 183 170 165 163 157 147 135 125
309 308 306 301 297 295 293 289 287 285 285 282 279 278 274 271 271 268 260 260 259 247 237 229 230 216 208 202 200 192 190 200 208 207 201 194 188 175 163 159 151 151 149
310 307 304 302 300 298 298 297 294 292 290 285 280 275 270 265 265 264 259 255 256 250 240 230 233 226 200 196 198 197 200 205 205 203 209 203 185 181 170 166 167 167 150
313 310 309 305 304 302 299 295 292 290 288 285 280 276 271 266 257 248 245 245 251 245 236 226 226 240 219 195 192 198 203 203 205 207 212 210 195 181 176 170 160 144 125
315 314 312 309 307 304 301 298 295 292 289 285 280 274 270 266 256 245 233 242 240 240 234 225 217 220 220 202 195 197 199 203 210 212 204 200 191 188 173 160 158 156 149
318 315 312 308 305 302 299 298 297 293 289 288 285 280 273 266 257 240 222 234 236 234 229 226 218 215 206 200 199 198 200 200 194 195 196 193 190 187 183 175 169 165 153
318 313 309 306 302 297 297 298 298 296 293 290 289 285 277 269 261 237 218 225 229 225 225 219 211 193 192 199 203 201 195 189 188 188 189 191 187 182 184 180 170 168 164
317 314 311 307 304 306 305 301 300 299 298 295 295 295 286 274 260 235 214 216 229 228 224 221 196 178 185 189 196 185 163 174 193 189 192 194 189 184 180 178 169 168 164
318 315 312 310 305 304 304 304 305 304 306 305 305 306 304 296 262 224 209 208 210 223 224 178 164 168 175 190 204 183 170 193 209 204 199 197 192 179 161 155 148 136 123
318 316 314 312 310 311 309 305 307 310 315 316 319 321 320 323 323 238 195 193 190 201 201 147 143 155 175 201 187 189 201 213 210 212 204 190 173 165 159 151 147 139 129
319 317 316 313 312 313 310 308 306 308 307 306 320 327 332 336 348 344 307 198 189 188 171 160 164 165 190 207 196 190 201 206 213 213 200 184 170 163 158 151 148 147 147
319 319 317 315 317 317 317 316 284 266 262 258 275 298 315 334 331 337 3 105 143 154 163 175 193 198 199 205 202 194 199 202 199 198 193 181 175 167 158 154 155 157 156
316 315 314 314 318 321 321 320 322 293 244 252 266 277 287 317 336 1 86 105 131 155 185 196 201 209 213 214 210 200 199 199 188 185 185 181 174 166 159 160 162 160 159
318 313 311 315 319 321 321 324 326 324 322 297 223 228 254 290 321 39 146 187 182 194 212 206 207 212 217 218 223 217 199 184 179 184 180 175 171 166 163 165 166 165 160
321 318 320 319 317 319 322 329 331 332 334 329 3 154 185 187 199 225 223 239 226 205 210 206 207 210 215 217 223 216 194 178 177 180 178 171 169 166 166 166 165 166 162
318 313 312 316 319 325 334 336 337 337 336 341 332 160 170 199 215 201 217 237 239 229 223 212 206 205 204 210 215 201 184 179 177 176 176 169 167 169 167 166 166 167 169
320 318 319 321 328 336 338 340 342 342 338 338 353 13 313 260 252 226 217 223 227 224 223 221 214 209 201 204 207 200 185 178 176 171 170 167 168 170 166 165 164 167 166
315 318 324 331 332 339 338 342 345 344 343 345 345 226 271 278 286 243 230 227 226 223 211 217 220 207 197 196 197 191 181 182 175 167 165 163 165 165 164 163 163 166 168
315 321 327 330 334 338 338 347 352 352 357 355 355 352 317 319 332 333 302 248 216 220 210 204 215 212 181 172 183 183 180 178 167 164 161 159 159 161 162 164 164 166 168
316 327 331 336 345 345 344 345 350 359 1 359 357 352 339 335 340 17 13 360 356 349 84 168 190 168 149 146 157 147 139 144 148 155 157 154 153 152 156 158 162 167 165
328 336 334 340 350 351 347 350 360 8 4 359 356 359 352 352 14 41 38 23 31 32 76 95 96 105 129 133 103 92 89 97 108 125 137 141 146 147 153 158 163 164 160
337 339 338 345 354 357 356 3 5 2 4 1 351 354 1 17 44 61 71 63 80 72 70 79 98 102 106 94 97 99 96 95 100 105 120 132 140 148 155 159 161 161 159